Flag for United Kingdom Weather past 2 weeks in Wolverhampton, England, United Kingdom

45 °F

Mostly cloudy.

Feels Like: 43 °F
Forecast: N/A
Wind: 3 mph from West

Location: Birmingham / Airport

Current Time: Nov 24, 2015 at 10:50:44 PM

Latest Report: Nov 24, 2015 at 9:50 PM

Visibility: N/A

Pressure: 29.80 "Hg

Humidity: 87%

Dew point: 41 °F

Location of WolverhamptonLocation

Historic Weather in Wolverhampton — Graph


Wolverhampton temperature yesterday

Maximum temperature yesterday: 43 °F (at 11:20 PM)
Minimum temperature yesterday: 28 °F (at 7:20 AM)
Average temperature yesterday: 37 °F

Past Weeks' High & Low Weather Summary

High61 °F (Nov 10, 1:50 PM)100% (Nov 12, 3:50 AM)30.24 "Hg (Nov 12, 3:50 AM)
Low28 °F (Nov 23, 7:20 AM)52% (Nov 21, 1:20 PM)29.39 "Hg (Nov 17, 1:50 PM)
Average48 °F82%29.89 "Hg
* Reported Nov 9 9:20 PM — Nov 24 9:20 PM, Wolverhampton, Weather by CustomWeather, © 2015

Note: Actual official high and low records may vary slightly from our data, if they occured in-between our weather recording intervals... More about our weather records


Wolverhampton weather history for previous 24 hours

Time TempWeatherWind HumidityBarometerVisibility
9:20 PM
Tue, Nov 24
45 °FPassing clouds.7 mph87%29.80 "HgN/A
8:50 PM45 °FPassing clouds.7 mph87%29.80 "HgN/A
8:20 PM45 °FPassing clouds.5 mph87%29.80 "HgN/A
7:50 PM45 °FPassing clouds.7 mph87%29.80 "HgN/A
7:20 PM45 °FPassing clouds.8 mph87%29.77 "HgN/A
6:50 PM45 °FPassing clouds.8 mph87%29.80 "HgN/A
6:20 PM46 °FPassing clouds.6 mph82%29.80 "HgN/A
5:50 PM46 °FPassing clouds.7 mph82%29.77 "HgN/A
5:20 PM46 °FPassing clouds.8 mph87%29.77 "HgN/A
4:50 PM48 °FPassing clouds.10 mph82%29.77 "HgN/A
4:20 PM48 °FLight rain. Passing clouds.13 mph82%29.77 "HgN/A
3:50 PM48 °FBroken clouds.13 mph76%29.77 "HgN/A
3:20 PM50 °FBroken clouds.10 mph76%29.77 "HgN/A
2:50 PM50 °FScattered showers. Partly sunny.8 mph76%29.77 "HgN/A
2:20 PM48 °FPartly sunny.9 mph82%29.77 "HgN/A
1:50 PM48 °FPartly sunny.7 mph87%29.77 "HgN/A
1:20 PM48 °FBroken clouds.8 mph82%29.77 "HgN/A
12:50 PM48 °FPartly sunny.7 mph82%29.80 "HgN/A
12:20 PM46 °FScattered clouds.8 mph87%29.80 "HgN/A
11:50 AM46 °FPassing clouds.8 mph87%29.80 "HgN/A
11:20 AM46 °FScattered clouds.9 mph82%29.83 "HgN/A
10:50 AM45 °FPassing clouds.7 mph87%29.83 "HgN/A
10:20 AM45 °FPassing clouds.6 mph87%29.86 "HgN/A
9:50 AM45 °FPassing clouds.7 mph87%29.86 "HgN/A
9:20 AM45 °FPassing clouds.7 mph87%29.86 "HgN/A
8:50 AM45 °FSunny.6 mph87%29.86 "Hg10 mi
8:20 AM45 °FPassing clouds.5 mph87%29.86 "HgN/A
7:50 AM45 °FPassing clouds.5 mph87%29.86 "HgN/A
7:20 AM45 °FPassing clouds.5 mph87%29.86 "HgN/A
6:50 AM45 °FPassing clouds.6 mph87%29.86 "HgN/A
6:20 AM45 °FPassing clouds.5 mph93%29.86 "HgN/A
5:50 AM46 °FPassing clouds.6 mph87%29.86 "HgN/A
5:20 AM45 °FPassing clouds.5 mph100%29.86 "HgN/A
4:50 AM45 °FPartly cloudy.7 mph100%29.86 "Hg4 mi
4:20 AM45 °FDrizzle. Mostly cloudy.8 mph100%29.86 "Hg2 mi
3:50 AM45 °FFog.9 mph100%29.86 "Hg2 mi
2:50 AM45 °FFog.9 mph93%29.86 "Hg2 mi
2:20 AM45 °FFog.10 mph93%29.89 "Hg2 mi
1:50 AM45 °FFog.12 mph93%29.89 "Hg2 mi
1:20 AM45 °FLight rain. Mostly cloudy.12 mph93%29.92 "Hg4 mi
12:50 AM43 °FLight rain. Low clouds.12 mph100%29.92 "Hg3 mi
12:20 AM43 °FLight rain. Mostly cloudy.13 mph100%29.92 "Hg5 mi
11:50 PM
Mon, Nov 23
43 °FLight rain. Mostly cloudy.13 mph100%29.95 "Hg4 mi
11:20 PM43 °FLight rain. Mostly cloudy.12 mph100%29.98 "Hg2 mi
10:20 PM41 °FLight rain. Passing clouds.10 mph100%30.01 "Hg3 mi
Weather by CustomWeather, © 2015

See weather overviewHow to use our weather pages